Flag for U.S.A. Weather past 2 weeks in Laredo, Texas, U.S.A.

Now
102 °F

Sunny.


Feels Like: 104 °F
Forecast: 76 / 102 °F
Wind: 8 mph from East

Location: Laredo International Airport

Current Time: Jul 30, 2015 at 4:01:17 PM

Latest Report: Jul 30, 2015 at 2:56 PM


Visibility: 10 mi

Pressure: 30.00 "Hg

Humidity: 27%

Dew point: 62 °F

Location of LaredoLocation

Historic Weather in Laredo — Graph

°F

Laredo temperature yesterday

Maximum temperature yesterday: 105 °F (at 2:56 PM)
Minimum temperature yesterday: 77 °F (at 6:56 AM)
Average temperature yesterday: 91 °F

Past Weeks' High & Low Weather Summary

 TemperatureHumidityPressure
High107 °F (Jul 26, 4:56 PM)91% (Jul 30, 6:56 AM)30.05 "Hg (Jul 30, 6:56 AM)
Low75 °F (Jul 30, 6:56 AM)20% (Jul 29, 2:56 PM)29.73 "Hg (Jul 21, 6:56 PM)
Average90 °F55%29.88 "Hg
* Reported Jul 15 2:56 PM — Jul 30 2:56 PM, Laredo, Weather by CustomWeather, © 2015

Note: Actual official high and low records may vary slightly from our data, if they occured in-between our weather recording intervals... More about our weather records

Advertising

Laredo weather history for previous 24 hours

 ConditionsComfort  
Time TempWeatherWind HumidityBarometerVisibility
2:56 PM
Thu, Jul 30
102 °FSunny.8 mph27%30.00 "Hg10 mi
1:56 PM99 °FPassing clouds.10 mph31%30.01 "Hg10 mi
12:56 PM96 °FSunny.No wind41%30.03 "Hg10 mi
11:56 AM93 °FSunny.No wind51%30.04 "Hg10 mi
10:56 AM90 °FSunny.6 mph57%30.05 "Hg10 mi
9:56 AM87 °FSunny.9 mph65%30.05 "Hg10 mi
8:56 AM82 °FSunny.9 mph79%30.04 "Hg10 mi
7:56 AM76 °FClear.5 mph90%30.02 "Hg10 mi
6:56 AM75 °FClear.No wind91%30.00 "Hg10 mi
5:56 AM76 °FClear.No wind88%29.99 "Hg10 mi
4:56 AM77 °FClear.No wind85%29.98 "Hg10 mi
3:56 AM78 °FClear.8 mph79%29.99 "Hg10 mi
2:56 AM80 °FClear.12 mph77%30.00 "Hg10 mi
1:56 AM82 °FClear.10 mph69%30.01 "Hg10 mi
12:56 AM83 °FClear.9 mph65%30.01 "Hg10 mi
11:56 PM
Wed, Jul 29
86 °FClear.14 mph57%29.98 "Hg10 mi
10:56 PM90 °FClear.16 mph45%29.97 "Hg10 mi
9:56 PM93 °FClear.16 mph40%29.95 "Hg10 mi
8:56 PM95 °FSunny.16 mph33%29.92 "Hg10 mi
7:56 PM99 °FSunny.18 mph27%29.90 "Hg10 mi
6:56 PM102 °FPassing clouds.18 mph25%29.88 "Hg10 mi
5:56 PM104 °FSunny.12 mph22%29.88 "Hg10 mi
4:56 PM104 °FSunny.16 mph23%29.89 "Hg10 mi
Weather by CustomWeather, © 2015

See weather overviewHow to use our weather pages